Regional Weather Roundup
Issued by NWS

Home | Current Version | Previous Version | Graphics & Text | Print | Product List | Glossary On
Versions: 1 2 3 4 5 6 7 8 9 10 11 12 13 14 15 16 17 18 19 20 21 22 23 24 25 26 27 28 29 30 31 32 33 34 35 36 37 38 39 40 41 42 43 44 45 46 47 48 49 50
000
ASUS44 KMEG 272210
RWRTN
TENNESSEE HOURLY STATE WEATHER ROUNDUP
NATIONAL WEATHER SERVICE MEMPHIS TN
500 PM CDT MON MAR 27 2017

TNZ002-004-019-021-049-052-054-088>092-272300-
WEST TENNESSEE

CITY           SKY/WX    TMP DP  RH WIND       PRES   REMARKS
MEMPHIS INTL   MOSUNNY   81  61  50 W17G28    29.76F
NWS MEMPHIS      N/A     80 N/A N/A MISG        N/A
JACKSON        TSTM      63  63 100 CALM      29.77F FOG
DYERSBURG      CLOUDY    62  59  90 NE10      29.80S
SOMERVILLE     PTSUNNY   77  64  65 VRB6      29.75S
BOLIVAR        MOSUNNY   79  63  57 SW14G26   29.75F
PARIS          CLOUDY    55  55 100 N7        29.83S
HUNTINGDON     PTSUNNY   59  57  94 CALM      29.77F
SAVANNAH       SUNNY     73  61  64 S13       29.78F
$$

TNZ008-025-027-028-033-062-065-066-272300-
NORTH MIDDLE TENNESSEE

CITY           SKY/WX    TMP DP  RH WIND       PRES   REMARKS
NASHVILLE      CLOUDY    64  58  80 W7        29.87S
PORTLAND       PTSUNNY   59  55  88 VRB6G15   29.91R FOG
CLARKSVILLE    LGT RAIN  58  54  86 S7        29.84F FOG
SMYRNA           N/A     63  57  82 SE8         N/A
COOKEVILLE     PTSUNNY   63  59  88 CALM      29.86R
GALLATIN       PTSUNNY   61  57  88 CALM      29.91R
CROSSVILLE     PTSUNNY   70  52  52 S8        29.90F
$$

TNZ061-075-076-078-094-096-097-272300-
SOUTH MIDDLE TENNESSEE

CITY           SKY/WX    TMP DP  RH WIND       PRES   REMARKS
FAYETTEVILLE   CLOUDY    59  57  94 W16G24    29.91R FOG
TULLAHOMA      CLOUDY    64  61  88 W6        29.92R
WINCHESTER     CLOUDY    66  57  72 S6        29.90R
MCMINNVILLE    CLOUDY    64  61  88 SW10G25   29.89R
COLUMBIA       MOSUNNY   68  68 100 S6        29.83F
SHELBYVILLE    CLOUDY    66  63  88 W5        29.91R
$$

TNZ017-018-042-046-047-272300-
NORTHEAST TENNESSEE

CITY           SKY/WX    TMP DP  RH WIND       PRES   REMARKS
TRI CITIES     MOSUNNY   73  52  47 SE7       29.92F
ELIZABETHTON   PTSUNNY   72  52  49 CALM      29.93F
$$

TNZ012-013-036-069-073-074-272300-
CENTRAL EAST TENNESSEE

CITY           SKY/WX    TMP DP  RH WIND       PRES   REMARKS
KNOXVILLE      CLOUDY    76  51  41 SW17      29.88F
OAK RIDGE      PTSUNNY   75  54  47 S7        29.90F
DOWNTOWN KNOXV MOSUNNY   77  57  50 W10G16    29.89S
GATLINBURG     SUNNY     75  46  35 SW13      29.88F
MORRISTOWN     SUNNY     73  57  56 VRB6      29.89F
JACKSBORO      MOSUNNY   75  54  46 S13G20    29.91F
$$

TNZ083-085-099-272300-
SOUTHEAST TENNESSEE

CITY           SKY/WX    TMP DP  RH WIND       PRES   REMARKS
CHATTANOOGA    CLOUDY    74  54  49 S12G18    29.90S
$$

SKY/WX REPORTED AS FAIR MEANS FEW OR NO CLOUDS BELOW
12 THOUSAND FEET.




USA.gov is the U.S. government's official web portal to all federal, state and local government web resources and services.